Regional Weather Roundup
Issued by NWS

Home | Current Version | Previous Version | Text Only | Print | Product List | Glossary On
Versions: 1 2 3 4 5 6 7 8 9 10 11 12 13 14 15 16 17 18 19 20 21 22 23 24 25 26 27 28 29 30 31 32 33 34 35 36 37 38 39 40 41 42 43 44 45 46 47 48 49 50
000
ASUS44 KFWD 050615
RWRTX
NORTH TEXAS HOURLY WEATHER ROUNDUP
NATIONAL WEATHER SERVICE FORT WORTH TX
100 AM CDT THU MAY 05 2016

NOTE: "FAIR" INDICATES FEW OR NO CLOUDS BELOW 12,000 FEET WITH NO
SIGNIFICANT WEATHER AND/OR OBSTRUCTIONS TO VISIBILITY.

TXZ118-119-050700-
DALLAS/FORT WORTH METROPLEX

CITY           SKY/WX    TMP DP  RH WIND       PRES   REMARKS
DFW AIRPORT    CLEAR     66  53  63 N9        30.00R
6HR MIN TEMP:  65; 6HR MAX TEMP:  81;

DALLAS LOVE    CLEAR     66  54  65 N6        30.01R
6HR MIN TEMP:  65; 6HR MAX TEMP:  81;

FTW MEACHAM    CLEAR     64  52  64 N8        30.01R
6HR MIN TEMP:  64; 6HR MAX TEMP:  80;

DAL-EXECUTIVE  CLEAR     63  52  67 NW8       30.00R
6HR MIN TEMP:  63; 6HR MAX TEMP:  78;

FTW-ALLIANCE   CLEAR     58  53  84 CALM      30.02R
6HR MIN TEMP:  57; 6HR MAX TEMP:  79;

FTW-NAS-JRB    CLEAR     65  57  75 NW7       30.02R
6HR MIN TEMP:  64; 6HR MAX TEMP:  80;

FTW-SPINKS     CLEAR     63  52  68 W6        30.02S
6HR MIN TEMP:  58; 6HR MAX TEMP:  77;

ARLINGTON      CLEAR     65  53  65 NW7       30.01R
6HR MIN TEMP:  64; 6HR MAX TEMP:  84;

GRAND PRAIRIE  CLEAR     70  50  49 CALM      30.03R
6HR MIN TEMP:  70; 6HR MAX TEMP:  81;

ADDISON        CLEAR     69  54  58 CALM      30.02S
6HR MIN TEMP:  68; 6HR MAX TEMP:  80;

MESQUITE       CLEAR     64  52  66 N5        30.00S
6HR MIN TEMP:  63; 6HR MAX TEMP:  79;

LANCASTER      CLEAR     64  51  64 NW6       30.01R
6HR MIN TEMP:  61; 6HR MAX TEMP:  81;

$$

TXZ091>094-102>105-117-120-121-131>134-050700-
NORTH CENTRAL TEXAS

CITY           SKY/WX    TMP DP  RH WIND       PRES   REMARKS
SHRMAN/DENISON CLEAR     57  47  69 NE5       30.02S
6HR MIN TEMP:  57; 6HR MAX TEMP:  76;

GAINESVILLE    CLEAR     58  49  73 N3        30.05R
6HR MIN TEMP:  58; 6HR MAX TEMP:  77;

BOWIE          CLEAR     61  50  65 CALM      30.04S
6HR MIN TEMP:  61; 6HR MAX TEMP:  78;

BRIDGEPORT     CLEAR     55  54  95 CALM      30.05S
6HR MIN TEMP:  54; 6HR MAX TEMP:  79;

DECATUR        CLEAR     65  48  53 NE3       30.04S
6HR MIN TEMP:  65; 6HR MAX TEMP:  78;

DENTON         CLEAR     61  53  75 N3        30.01S
6HR MIN TEMP:  60; 6HR MAX TEMP:  78;

MCKINNEY       CLEAR     62  54  74 N5        30.01R
6HR MIN TEMP:  61; 6HR MAX TEMP:  80;

GREENVILLE     CLEAR     61  54  77 CALM      30.00S
TERRELL        CLEAR     68  52  56 N6        30.00R
6HR MIN TEMP:  63; 6HR MAX TEMP:  79;

WAXAHACHIE     CLEAR     63  54  71 NW3       30.02R
6HR MIN TEMP:  63; 6HR MAX TEMP:  79;

CLEBURNE       CLEAR     61  57  88 CALM      30.03S
GRANBURY       CLEAR     57  52  83 CALM      30.03S
6HR MIN TEMP:  57; 6HR MAX TEMP:  80;

$$

TXZ083>090-098>101-113>116-127>130-139>142-154-155-050700-
WESTERN NORTH TEXAS

CITY           SKY/WX    TMP DP  RH WIND       PRES   REMARKS
WICHITA FALLS  CLEAR     62  51  67 NE6       30.04R
6HR MIN TEMP:  61; 6HR MAX TEMP:  81;

WF-KICKAPOO    CLEAR     66  50  56 N5        30.05S
6HR MIN TEMP:  66; 6HR MAX TEMP:  83;

ABILENE        CLEAR     56  50  80 S8        30.08
6HR MIN TEMP:  55; 6HR MAX TEMP:  79;

ABILENE-DYESS  CLEAR     54  49  85 SW6       30.07R
6HR MIN TEMP:  53; 6HR MAX TEMP:  80;

BRECKENRIDGE   CLEAR     60  51  73 SW5       30.05S
6HR MIN TEMP:  60; 6HR MAX TEMP:  81;

GRAHAM         CLEAR     54  53  98 CALM      30.03R
6HR MIN TEMP:  54; 6HR MAX TEMP:  80;

MINERAL WELLS  CLEAR     59  55  87 NW3       30.01S
6HR MIN TEMP:  59; 6HR MAX TEMP:  79;

STEPHENVILLE   CLEAR     59  53  78 CALM      30.07S
6HR MIN TEMP:  58; 6HR MAX TEMP:  78;

COMANCHE       CLEAR     68  46  44 W3        30.06S
6HR MIN TEMP:  68; 6HR MAX TEMP:  76;

COLEMAN        CLEAR     55  50  82 W6        30.08S
6HR MIN TEMP:  55; 6HR MAX TEMP:  79;

$$

TXZ143>147-156>162-174-175-050700-
CENTRAL TEXAS

CITY           SKY/WX    TMP DP  RH WIND       PRES   REMARKS
WACO           CLEAR     57  52  83 SW7       30.01S
6HR MIN TEMP:  57; 6HR MAX TEMP:  79;

WACO-MCGREGOR  CLEAR     57  54  89 CALM      30.02S
6HR MIN TEMP:  57; 6HR MAX TEMP:  80;

HILLSBORO      CLEAR     57  53  86 CALM      30.01S
6HR MIN TEMP:  57; 6HR MAX TEMP:  76;

CORSICANA      CLEAR     63  53  70 W7        30.00S
6HR MIN TEMP:  63; 6HR MAX TEMP:  79;

MEXIA          CLEAR     62  52  69 W10       29.99S
HEARNE         CLEAR     58  56  92 CALM      30.02S
6HR MIN TEMP:  57; 6HR MAX TEMP:  80;

TEMPLE         CLEAR     60  55  83 NW3       30.03S
6HR MIN TEMP:  58; 6HR MAX TEMP:  79;

KILLEEN        CLEAR     66  47  50 W5        30.04S
6HR MIN TEMP:  64; 6HR MAX TEMP:  78;

KILLEEN-SKYLRK CLEAR     62  51  67 W7        30.04S
6HR MIN TEMP:  61; 6HR MAX TEMP:  80;

FORT HOOD      CLEAR     63  51  66 W2        30.02S
6HR MIN TEMP:  62; 6HR MAX TEMP:  79;

GATESVILLE     CLEAR     59  52  77 MISG      30.06S
HAMILTON       CLEAR     59  50  72 W7        30.06S
6HR MIN TEMP:  59; 6HR MAX TEMP:  78;

LAMPASAS       CLEAR     58  52  79 W3        30.06R
6HR MIN TEMP:  57; 6HR MAX TEMP:  78;

$$

TXZ095>097-106>112-122>126-135>138-148>153-164>167-050700-
EAST TEXAS

CITY           SKY/WX    TMP DP  RH WIND       PRES   REMARKS
PARIS          CLEAR     59  43  55 N8        30.00R
6HR MIN TEMP:  59; 6HR MAX TEMP:  79;

SULPHUR SPRNGS CLEAR     63  55  77 CALM      30.01S
MOUNT PLEASANT CLEAR     58  56  94 CALM      30.00R
6HR MIN TEMP:  58; 6HR MAX TEMP:  78;

GILMER         CLEAR     60  55  82 CALM      29.98S
6HR MIN TEMP:  60; 6HR MAX TEMP:  77;

MINEOLA        CLEAR     63  55  77 CALM      29.99S
TYLER          CLEAR     65  52  62 NW3       29.98R
6HR MIN TEMP:  65; 6HR MAX TEMP:  79;

LONGVIEW       CLEAR     62  55  77 CALM      29.96R
6HR MIN TEMP:  61; 6HR MAX TEMP:  77;

MARSHALL       CLEAR     63  54  74 CALM      29.98S
6HR MIN TEMP:  60; 6HR MAX TEMP:  76;

PALESTINE      CLEAR     57  56  95 CALM      29.99S
JACKSONVILLE     N/A     68  51  55 W7        29.99S
HENDERSON      CLEAR     58  55  88 CALM      29.98R
6HR MIN TEMP:  58; 6HR MAX TEMP:  77; 6HR PCP:  0.01;

NACOGDOCHES    CLEAR     55  54  94 CALM      29.96S
6HR MIN TEMP:  55; 6HR MAX TEMP:  77;

LUFKIN         CLEAR     58  55  90 CALM      29.96S
6HR MIN TEMP:  58; 6HR MAX TEMP:  77;

$$

SUPPLEMENTAL OBSERVATIONS (CENTRAL)

CITY           SKY/WX    TMP DP  RH WIND       PRES   REMARKS
LAKE TEXOMA      N/A     66  48  52 N3          N/A
CADDO GRASSLND   N/A     54  50  87 CALM        N/A
PAT MAYSE LAKE   N/A     59  48  67 N1          N/A
LAKE LIMESTONE   N/A     61  54  77 W2          N/A
MCGREGOR         N/A     55  52  88 CALM        N/A
TEMPLE           N/A     64  52  63 W5          N/A
$$

SUPPLEMENTAL OBSERVATIONS (WEST)

CITY           SKY/WX    TMP DP  RH WIND       PRES   REMARKS
MILLERS CREEK    N/A     59  54  82 SW5         N/A
POSSUM KINGDOM   N/A     63  48  59 SW6         N/A
LBJ GRASSLAND    N/A     64  48  55 N2          N/A
GRANBURY         N/A     57  52  82 NW2         N/A
COMANCHE         N/A     64  43  45 W7          N/A
HAMBY            N/A     55  48  76 S3          N/A
IVIE RESERVOIR   N/A     55  46  71 CALM        N/A
COLORADO BEND    N/A     57  45  62 CALM C1F1C2F2C3F3C4F4C5F5C6F6C7F7C8F8C9!



USA.gov is the U.S. government's official web portal to all federal, state and local government web resources and services.